N208JH KONT-KVNY

Flight info

Callsign N208JH
Flight time 0h 30m
Altitude 6000
Route PDZ V186 VNY
Aircraft C208/L-VGD/C

Departure

Time 2026-05-04 00:31
Airport Ontario International Airport (KONT)

Arrival

Time 2026-05-04 01:02
Airport Van Nuys Airport (KVNY)
Time Latitude Longitude Altitude Speed Heading
2026-05-04 00:18 34.05138 -117.60345 935 ft 0 kts 83°
2026-05-04 00:26 34.05163 -117.60332 934 ft 11 kts
2026-05-04 00:26 34.05262 -117.60360 934 ft 13 kts 345°
2026-05-04 00:27 34.05364 -117.60371 933 ft 18 kts
2026-05-04 00:27 34.05387 -117.60249 933 ft 22 kts 91°
2026-05-04 00:27 34.05386 -117.60023 933 ft 31 kts 90°
2026-05-04 00:27 34.05387 -117.59783 933 ft 25 kts 89°
2026-05-04 00:28 34.05386 -117.59559 933 ft 27 kts 91°
2026-05-04 00:28 34.05387 -117.59336 933 ft 28 kts 90°
2026-05-04 00:28 34.05386 -117.59124 933 ft 22 kts 89°
2026-05-04 00:28 34.05387 -117.58928 933 ft 25 kts 91°
2026-05-04 00:29 34.05387 -117.58714 933 ft 24 kts 91°
2026-05-04 00:29 34.05390 -117.58530 932 ft 19 kts 85°
2026-05-04 00:29 34.05387 -117.58380 933 ft 15 kts 89°
2026-05-04 00:29 34.05398 -117.58293 933 ft 1 kts 47°
2026-05-04 00:30 34.05427 -117.58275 933 ft 17 kts
2026-05-04 00:30 34.05500 -117.58346 933 ft 15 kts 269°
2026-05-04 00:31 34.05499 -117.58670 933 ft 66 kts 270°
2026-05-04 00:31 34.05496 -117.59331 1106 ft 86 kts 263°
2026-05-04 00:31 34.05450 -117.60085 1337 ft 95 kts 260°
2026-05-04 00:31 34.05312 -117.60868 1622 ft 100 kts 234°
2026-05-04 00:32 34.04672 -117.61189 1920 ft 110 kts 181°
2026-05-04 00:32 34.03941 -117.60798 2210 ft 122 kts 155°
2026-05-04 00:32 34.03189 -117.60239 2476 ft 124 kts 156°
2026-05-04 00:32 34.02437 -117.59770 2748 ft 123 kts 160°
2026-05-04 00:33 34.01681 -117.59294 3095 ft 122 kts 159°
2026-05-04 00:33 34.00307 -117.59578 3632 ft 114 kts 245°
2026-05-04 00:33 34.00260 -117.60538 3923 ft 120 kts 277°
2026-05-04 00:34 34.00457 -117.61533 4231 ft 122 kts 281°
2026-05-04 00:34 34.00639 -117.62523 4559 ft 122 kts 277°
2026-05-04 00:34 34.00848 -117.63543 4829 ft 127 kts 281°
2026-05-04 00:34 34.01066 -117.64559 5165 ft 125 kts 283°
2026-05-04 00:35 34.01312 -117.65567 5449 ft 128 kts 284°
2026-05-04 00:35 34.01572 -117.66625 5671 ft 135 kts 281°
2026-05-04 00:35 34.01854 -117.67725 5898 ft 138 kts 281°
2026-05-04 00:35 34.02160 -117.68866 5987 ft 150 kts 285°
2026-05-04 00:36 34.02504 -117.70089 6034 ft 158 kts 280°
2026-05-04 00:36 34.02775 -117.71389 6030 ft 161 kts 279°
2026-05-04 00:36 34.03049 -117.72710 6036 ft 163 kts 279°
2026-05-04 00:36 34.03329 -117.74030 6036 ft 163 kts 279°
2026-05-04 00:37 34.03586 -117.75363 6040 ft 162 kts 274°
2026-05-04 00:37 34.03750 -117.76707 6039 ft 163 kts 273°
2026-05-04 00:37 34.03943 -117.78057 6028 ft 164 kts 276°
2026-05-04 00:37 34.04162 -117.79407 6027 ft 164 kts 276°
2026-05-04 00:38 34.04373 -117.80747 6030 ft 162 kts 276°
2026-05-04 00:38 34.04584 -117.82078 6025 ft 161 kts 276°
2026-05-04 00:38 34.04796 -117.83408 6023 ft 162 kts 276°
2026-05-04 00:38 34.05006 -117.84742 6031 ft 162 kts 276°
2026-05-04 00:39 34.05215 -117.86055 6025 ft 161 kts 276°
2026-05-04 00:39 34.05424 -117.87374 6029 ft 159 kts 276°
2026-05-04 00:39 34.05634 -117.88687 6024 ft 159 kts 276°
2026-05-04 00:39 34.05840 -117.90002 6022 ft 160 kts 276°
2026-05-04 00:40 34.05909 -117.90446 6024 ft 160 kts 276°
2026-05-04 00:40 34.06260 -117.92640 6024 ft 161 kts 278°
2026-05-04 00:40 34.06488 -117.93958 6026 ft 161 kts 277°
2026-05-04 00:40 34.06695 -117.95286 6025 ft 161 kts 276°
2026-05-04 00:41 34.06901 -117.96614 6024 ft 161 kts 277°
2026-05-04 00:41 34.07109 -117.97938 6026 ft 161 kts 277°
2026-05-04 00:41 34.07320 -117.99270 6021 ft 161 kts 277°
2026-05-04 00:41 34.07542 -118.00598 6027 ft 163 kts 282°
2026-05-04 00:42 34.07945 -118.01890 6019 ft 165 kts 287°
2026-05-04 00:42 34.08345 -118.03193 6019 ft 166 kts 286°
2026-05-04 00:42 34.08742 -118.04495 6025 ft 166 kts 287°
2026-05-04 00:42 34.09142 -118.05798 6015 ft 165 kts 287°
2026-05-04 00:43 34.09543 -118.07097 6013 ft 166 kts 287°
2026-05-04 00:43 34.09940 -118.08403 6009 ft 166 kts 287°
2026-05-04 00:43 34.10339 -118.09706 6023 ft 165 kts 287°
2026-05-04 00:43 34.10738 -118.11002 6022 ft 165 kts 287°
2026-05-04 00:44 34.11135 -118.12300 6024 ft 165 kts 286°
2026-05-04 00:44 34.11532 -118.13597 6020 ft 165 kts 287°
2026-05-04 00:44 34.11931 -118.14902 6022 ft 166 kts 287°
2026-05-04 00:44 34.12333 -118.16210 6031 ft 166 kts 287°
2026-05-04 00:45 34.12734 -118.17515 6034 ft 166 kts 287°
2026-05-04 00:45 34.13126 -118.18803 6035 ft 166 kts 287°
2026-05-04 00:45 34.13527 -118.20124 6035 ft 166 kts 287°
2026-05-04 00:45 34.13925 -118.21423 6032 ft 165 kts 287°
2026-05-04 00:46 34.14187 -118.22286 6029 ft 164 kts 287°
2026-05-04 00:46 34.14579 -118.23573 6033 ft 163 kts 287°
2026-05-04 00:46 34.14971 -118.24859 6035 ft 163 kts 287°
2026-05-04 00:46 34.15491 -118.26561 6030 ft 163 kts 288°
2026-05-04 00:47 34.15757 -118.27429 6040 ft 163 kts 288°
2026-05-04 00:47 34.16280 -118.29148 6033 ft 166 kts 287°
2026-05-04 00:47 34.16546 -118.30033 6039 ft 166 kts 287°
2026-05-04 00:47 34.17082 -118.31257 6030 ft 169 kts 315°
2026-05-04 00:48 34.18083 -118.32016 6029 ft 170 kts 329°
2026-05-04 00:48 34.19117 -118.32709 6035 ft 170 kts 328°
2026-05-04 00:48 34.20148 -118.33407 6036 ft 171 kts 328°
2026-05-04 00:48 34.21187 -118.34105 6038 ft 171 kts 328°
2026-05-04 00:49 34.22229 -118.34799 6032 ft 171 kts 329°
2026-05-04 00:49 34.23272 -118.35496 6035 ft 171 kts 329°
2026-05-04 00:49 34.24310 -118.36186 6036 ft 170 kts 328°
2026-05-04 00:49 34.25346 -118.36870 6044 ft 170 kts 328°
2026-05-04 00:50 34.26373 -118.37548 6046 ft 171 kts 329°
2026-05-04 00:50 34.27415 -118.38237 6048 ft 171 kts 328°
2026-05-04 00:50 34.28463 -118.38923 6046 ft 171 kts 328°
2026-05-04 00:50 34.29516 -118.39611 6035 ft 172 kts 329°
2026-05-04 00:51 34.30567 -118.40302 6045 ft 172 kts 328°
2026-05-04 00:51 34.31624 -118.40984 6041 ft 172 kts 330°
2026-05-04 00:51 34.32684 -118.41663 6042 ft 173 kts 329°
2026-05-04 00:51 34.33748 -118.42338 6043 ft 174 kts 330°
2026-05-04 00:52 34.34827 -118.43007 6048 ft 176 kts 333°
2026-05-04 00:52 34.36002 -118.43479 5883 ft 180 kts 341°
2026-05-04 00:52 34.37202 -118.43909 5668 ft 182 kts 340°
2026-05-04 00:52 34.38438 -118.44345 5506 ft 184 kts 341°
2026-05-04 00:53 34.39642 -118.44761 5501 ft 177 kts 340°
2026-05-04 00:53 34.40821 -118.45165 5480 ft 175 kts 340°
2026-05-04 00:53 34.41986 -118.45559 5491 ft 173 kts 340°
2026-05-04 00:53 34.43175 -118.45956 5278 ft 182 kts 341°
2026-05-04 00:54 34.44423 -118.46373 5038 ft 189 kts 340°
2026-05-04 00:54 34.45673 -118.46776 4978 ft 181 kts 341°
2026-05-04 00:54 34.46750 -118.47397 4963 ft 165 kts 307°
2026-05-04 00:54 34.47082 -118.48585 4969 ft 143 kts 257°
2026-05-04 00:55 34.46534 -118.49454 4971 ft 132 kts 208°
2026-05-04 00:55 34.45684 -118.49878 4974 ft 132 kts 204°
2026-05-04 00:55 34.44835 -118.50289 4970 ft 132 kts 199°
2026-05-04 00:55 34.43952 -118.50581 4976 ft 132 kts 198°
2026-05-04 00:56 34.43071 -118.50882 4976 ft 132 kts 197°
2026-05-04 00:56 34.42152 -118.50959 4984 ft 133 kts 181°
2026-05-04 00:56 34.41228 -118.50941 4982 ft 132 kts 182°
2026-05-04 00:56 34.40307 -118.50939 4991 ft 132 kts 182°
2026-05-04 00:57 34.39394 -118.50948 4988 ft 130 kts 184°
2026-05-04 00:57 34.38477 -118.50883 4759 ft 137 kts 173°
2026-05-04 00:57 34.37544 -118.50692 4521 ft 136 kts 175°
2026-05-04 00:57 34.36590 -118.50552 4299 ft 142 kts 177°
2026-05-04 00:58 34.35585 -118.50438 4075 ft 145 kts 178°
2026-05-04 00:58 34.34583 -118.50331 3848 ft 147 kts 178°
2026-05-04 00:58 34.33549 -118.50245 3598 ft 152 kts 180°
2026-05-04 00:58 34.32501 -118.50154 3379 ft 152 kts 179°
2026-05-04 00:59 34.31437 -118.50066 3198 ft 152 kts 178°
2026-05-04 00:59 34.30403 -118.49917 3031 ft 152 kts 176°
2026-05-04 00:59 34.29333 -118.49820 2701 ft 156 kts 181°
2026-05-04 00:59 34.28255 -118.49751 2438 ft 154 kts 178°
2026-05-04 01:00 34.27195 -118.49635 2177 ft 152 kts 176°
2026-05-04 01:00 34.26155 -118.49555 1961 ft 142 kts 179°
2026-05-04 01:00 34.25254 -118.49452 1782 ft 120 kts 175°
2026-05-04 01:00 34.24444 -118.49384 1573 ft 115 kts 175°
2026-05-04 01:01 34.23662 -118.49298 1385 ft 111 kts 175°
2026-05-04 01:01 34.22953 -118.49236 1273 ft 91 kts 174°
2026-05-04 01:01 34.22371 -118.49176 1096 ft 79 kts 170°
2026-05-04 01:01 34.21823 -118.49118 911 ft 77 kts 172°
2026-05-04 01:02 34.21332 -118.49073 799 ft 61 kts 175°
2026-05-04 01:02 34.20973 -118.49043 791 ft 44 kts 175°
2026-05-04 01:02 34.20719 -118.49014 785 ft 22 kts 174°
2026-05-04 01:02 34.20676 -118.48897 783 ft 16 kts 87°
2026-05-04 01:03 34.20632 -118.48831 779 ft 10 kts 186°
2026-05-04 01:03 34.20529 -118.48840 776 ft 20 kts 184°
2026-05-04 01:03 34.20433 -118.48810 772 ft 11 kts 96°
2026-05-04 01:03 34.20435 -118.48703 774 ft 12 kts 84°
2026-05-04 01:04 34.20460 -118.48697 774 ft 9 kts 323°
2026-05-04 01:04 34.20463 -118.48733 774 ft 0 kts 263°